Regional Weather Roundup
Issued by NWS Kansas City/Pleasant Hill, MO

Home | Current Version | Previous Version | Graphics & Text | Print | Product List | Glossary Off
Versions: 1 2 3 4 5 6 7 8 9 10 11 12 13 14 15 16 17 18 19 20 21 22 23 24 25 26 27 28 29 30 31 32 33 34 35 36 37 38 39 40 41 42 43 44 45 46 47 48 49 50

000
ASUS43 KEAX 011104
RWREAX

WEATHER ROUNDUP FOR EASTERN KANSAS AND NORTHWEST MISSOURI
NATIONAL WEATHER SERVICE KANSAS CITY/PLEASANT HILL MO
600 AM CDT FRI AUG 01 2014

KSZ040-057-103>105-MOZ028-029-037-043-011200-
...KANSAS CITY METROPOLITAN AREA...

CITY           SKY/WX    TMP DP  RH WIND       PRES   REMARKS
K.C. INTL      CLOUDY    68  61  78 CALM      30.08S
K.C. DOWNTOWN  CLOUDY    70  62  76 CALM      30.06S
LEES SUMMIT    PTCLDY    65  59  81 CALM      30.08S
OLATHE - IXD   CLOUDY    65  61  87 S5        30.08F
OLATHE - OJC   CLOUDY    65  62  90 CALM      30.07F
LAWRENCE       MOCLDY    65  61  87 CALM      30.07S

$$

MOZ001>008-011>017-020>025-030>033-038>040-044>046-053-054-011200-
...NORTHERN AND CENTRAL MISSOURI...

CITY           SKY/WX    TMP DP  RH WIND       PRES   REMARKS
ST. JOSEPH     LGT RAIN  65  63  93 N6        30.09R
MOSBY          CLOUDY    64  63  94 CALM      30.07F
WHITEMAN AFB   MOCLDY    62  53  73 MISG      30.06S
CLINTON        CLEAR     57  57 100 CALM      30.07S
SEDALIA        PTCLDY    62  57  83 S3        30.08R
WARSAW         NOT AVBL
MARSHALL       MOCLDY    64  63  94 CALM      30.08R
CHILLICOTHE      N/A     66  62  87 CALM      30.09S
KIRKSVILLE     PTCLDY    62  59  90 W3        30.08S

$$

MOZ041-047>049-056>058-063>065-088>090-097-011200-
...EASTERN AND SOUTHERN MISSOURI...

CITY           SKY/WX    TMP DP  RH WIND       PRES   REMARKS
ST. LOUIS INTL PTCLDY    69  63  81 CALM      30.08S
SPIRIT OF STL  CLEAR     60  59  96 CALM      30.07S FOG
COLUMBIA       PTCLDY    62  60  93 S5        30.07S
JEFFERSON CITY PTCLDY    62  59  90 SE3       30.07S
HANNIBAL       PTCLDY    64  63  94 SE3       30.08R
ROLLA          CLEAR     63  61  93 S3        30.08R
LEBANON        FOG       61  59  94 CALM      30.11R VSB 1/2
OSAGE BEACH    CLEAR     61  57  88 CALM      30.08S
SPRINGFIELD    FOG       63  62  97 S3        30.09R VSB 1/4
BRANSON        CLOUDY    64  63  94 CALM      30.10S FOG
NEVADA         CLEAR     63  63 100 CALM      30.09S FOG
JOPLIN         FOG       64  64 100 CALM      30.09R VSB 3/4
WEST PLAINS    FOG       58  57  97 CALM      30.11R VSB 1/4

$$

IAZ060-094-KSZ022-034>040-054-083-096-NEZ052-066-093-011200-
...KANSAS...SOUTHEAST NEBRASKA AND IOWA...

CITY           SKY/WX    TMP DP  RH WIND       PRES   REMARKS
TOPEKA         CLOUDY    66  64  93 CALM      30.07S
MANHATTAN      MOCLDY    67  61  81 CALM      30.04S
EMPORIA        MOCLDY    64  62  93 SW6       30.07S
CHANUTE        FOG       61  60  97 E3        30.09R VSB 1/4
WICHITA        PTCLDY    61  60  97 S6        30.07F
OMAHA          PTCLDY    66  60  81 SE8       30.05S
LINCOLN        CLEAR     66  57  72 SE5       30.04R
FALLS CITY     CLOUDY    65  62  90 E5        30.05F
LAMONI         MOCLDY    64  59  83 NW6       30.09R
DES MOINES     PTCLDY    63  60  90 CALM      30.07R

$$




USA.gov is the U.S. government's official web portal to all federal, state and local government web resources and services.